Location: Unspecified
(0.0000°N, 0.0000°E)
Time: 03:58:41
(UTC+00:00)

Transit 2A - Pass Details

Date: 04 June 2019
Orbit: 593 x 966 km, 66.7° (Epoch: 26 June)

Event Time Altitude Azimuth Distance (km) Brightness Sun altitude
Rises 01:51:11 0° 164° (SSE) 3,307 - -54.6°
Reaches altitude 10° 01:54:49 10° 139° (SE) 2,457 - -53.9°
Maximum altitude 01:57:40 14° 108° (ESE) 2,239 - -53.3°
Drops below altitude 10° 02:00:37 10° 78° (ENE) 2,568 - -52.7°
Exits shadow 02:02:23 - 66° (ENE) 2,966 9.5 -52.4°
Sets 02:04:33 0° 55° (NE) 3,568 10.1 -52.0°
